#timestamp,LO_Frequency,Hit,StdDev 
1577631615.7,286047002.3,N
1577631635.5,286047002.2,N
1577631655.4,286047002.3,N
1577631675.2,286047002.5,N
1577631695.0,286046999.9,N
1577631695.9,286046999.9,N
1577631715.8,286047000.3,N
1577631735.6,286047000.1,N
1577631755.5,286047003.9,N
1577631775.3,286047003.8,N
1577631795.1,286047003.6,N
1577631815.9,286047005.5,Y
1577631835.7,286047001.5,P
1577631855.5,286047001.8,P
1577631875.4,286047004.3,P
1577631895.2,286047000.9,N
1577631915.1,286047000.1,N
1577631916.0,286047000.1,N
1577631935.8,286047000.1,N
1577631955.6,286046998.2,N
1577631975.5,286046999.8,N
1577631995.3,286047001.3,N
1577632015.2,286047002.5,N
1577632035.9,286046998.2,N
1577632055.7,286047000.7,N
1577632075.6,286047000.5,N
1577632095.4,286047000.6,N
1577632115.2,286046999.9,N
1577632135.1,286047000.0,N
1577632136.0,286047000.0,N
1577632155.8,286046998.2,N
1577632175.7,286047001.2,N
1577632195.5,286046996.8,N
1577632215.3,286046998.8,N
1577632235.2,286047001.0,N
1577632255.0,286047000.5,N
1577632255.9,286047000.5,N
1577632275.7,286046998.7,N
1577632295.6,286047000.4,N
1577632315.4,286047002.3,N
1577632335.3,286047002.8,N
1577632355.1,286047002.7,N
1577632356.0,286047002.7,N
1577632375.8,286047002.8,N
1577632395.7,286046999.8,N
1577632415.5,286047002.5,N
1577632435.3,286047004.1,N
1577632455.2,286047003.5,N
1577632475.0,286047002.8,N
1577632475.9,286047002.8,N
1577632495.8,286047002.0,N
1577632515.6,286047001.7,N
1577632535.4,286047002.3,N
1577632555.3,286047002.9,N
1577632575.1,286047005.2,Y
1577632595.9,286047003.2,P
1577632615.7,286047004.1,P
1577632635.5,286047004.3,P
1577632655.4,286047004.3,Y
1577632675.2,286046999.1,P
1577632695.0,286046997.4,N
1577632696.0,286046997.4,N
1577632715.8,286046997.2,N
1577632735.6,286046996.1,N
1577632755.5,286046995.4,N
1577632775.3,286046995.0,N
1577632795.1,286046997.7,N
1577632815.9,286047000.4,N
1577632835.7,286046999.7,N
1577632855.6,286047000.4,N
1577632875.4,286046999.4,N
1577632895.2,286046997.7,N
1577632915.1,286046998.0,N
1577632916.0,286046998.0,N
1577632935.8,286046995.2,N
1577632955.6,286046993.5,Y
1577632975.5,286046997.2,P
1577632995.3,286046996.8,P
1577633015.2,286046999.1,N
1577633035.9,286046999.5,N
1577633055.7,286047000.7,N
1577633075.6,286047002.5,N
1577633095.4,286047002.1,N
1577633115.2,286047000.6,N
1577633135.1,286047000.4,N
1577633136.0,286047000.4,N
1577633155.8,286047001.4,N
1577633175.7,286047002.6,N
1577633195.5,286047001.7,N
1577633215.3,286047004.1,N
1577633235.2,286047002.2,N
1577633255.0,286047000.6,N
1577633255.9,286047000.6,N
1577633275.7,286047001.2,N
1577633295.6,286047000.8,N
1577633315.4,286046998.1,N
1577633335.3,286046998.8,N
1577633355.1,286046999.6,N
1577633356.0,286046999.6,N
1577633375.8,286046995.4,N
1577633395.7,286046999.1,N
1577633415.5,286046999.8,N
1577633435.4,286047001.2,N
1577633455.2,286046998.5,N
1577633475.0,286046998.1,N
1577633475.9,286046998.1,N
1577633495.8,286046998.5,N
1577633515.6,286047000.5,N
1577633535.4,286047000.8,N
1577633555.3,286047000.7,N
1577633575.1,286046999.2,N
1577633595.9,286046999.2,N
1577633615.7,286046999.5,N
1577633635.5,286046998.3,N
1577633655.4,286046998.2,N
1577633675.2,286046998.2,N
1577633695.0,286046998.9,N
1577633696.0,286046998.9,N
1577633715.8,286046999.2,N
1577633735.6,286046999.3,N
1577633755.5,286046996.8,N
1577633775.3,286046996.9,N
1577633795.1,286046998.3,N
1577633815.9,286046999.6,N
1577633835.7,286046997.1,N
1577633855.6,286046998.7,N
1577633875.4,286047001.1,N
1577633895.2,286046998.5,N
1577633915.1,286046998.5,N
1577633916.0,286046998.5,N
1577633935.8,286046997.3,N
1577633955.6,286046999.3,N
1577633975.5,286046998.4,N
1577633995.3,286046999.6,N
1577634015.2,286046998.7,N
1577634035.9,286046999.3,N
1577634055.7,286047001.1,N
1577634075.6,286046996.5,Y
1577634095.4,286047001.0,P
1577634115.3,286046998.1,N
1577634135.1,286047000.0,N
1577634136.0,286047000.0,N
1577634155.8,286047000.0,N
1577634175.7,286047003.9,Y
1577634195.5,286047001.6,P
1577634215.4,286047000.6,N
1577634235.2,286046999.7,N
1577634255.0,286046999.7,N
1577634255.9,286046999.7,N
1577634275.8,286046998.1,N
1577634295.6,286046999.4,N
1577634315.4,286047000.7,N
1577634335.3,286046996.7,Y
1577634355.1,286046996.8,P
1577634375.9,286046997.9,N
1577634395.7,286046995.0,P
1577634415.5,286046995.3,N
1577634435.4,286046996.7,N
1577634455.2,286046997.9,N
1577634475.0,286046995.5,N
1577634475.9,286046995.5,N
1577634495.8,286046998.9,N
1577634515.6,286046998.2,N
1577634535.5,286046998.1,N
1577634555.3,286047000.8,N
1577634575.1,286046999.5,N
1577634595.9,286046999.2,N
1577634615.7,286046997.3,N
1577634635.6,286046997.7,N
1577634655.4,286046996.8,N
1577634675.2,286046997.1,N
1577634695.1,286046999.6,N
1577634696.0,286046999.6,N
1577634715.8,286046997.7,N
1577634735.6,286046994.9,Y
1577634755.5,286046996.6,P
1577634775.3,286046999.5,N
1577634795.2,286047001.2,N
1577634815.9,286046998.6,N
1577634835.7,286047000.2,N
1577634855.6,286046998.4,N
1577634875.4,286047000.8,N
1577634895.2,286046998.3,N
1577634915.1,286046997.1,N
1577634916.0,286046997.1,N
1577634935.8,286046996.8,N
1577634955.7,286046997.4,N
1577634975.5,286046996.2,N
1577634995.3,286046997.9,N
1577635015.2,286046997.0,N
1577635035.0,286046994.9,Y
1577635035.9,286046994.9,P
1577635055.8,286046999.4,N
1577635075.6,286046998.6,N
1577635095.4,286046996.8,N
1577635115.3,286046999.2,N
1577635135.1,286046998.9,N
1577635155.8,286046999.2,N
1577635175.7,286046998.3,N
1577635195.5,286046997.0,N
